Time,TemperatureF,DewpointF,PressureIn,WindDirection,WindDirectionDegrees,WindSpeedMPH,WindSpeedGustMPH,Humidity,HourlyPrecipIn,Conditions,Clouds,dailyrainin,SolarRadiationWatts/m^2,SoftwareType,DateUTC
2013-01-17 00:22:00,30.0,30.0,-100.00,SSE,163,1.0,2.0,100,0.00,,,0.00,1.000000,,2013-01-17 05:22:00,
2013-01-17 00:33:00,30.0,30.0,-100.00,SSE,163,1.0,2.0,100,0.00,,,0.00,1.000000,,2013-01-17 05:33:00,
2013-01-17 00:42:00,30.0,30.0,-100.00,SSE,163,1.0,2.0,100,0.00,,,0.00,1.000000,,2013-01-17 05:42:00,
2013-01-17 00:52:00,30.0,30.0,-100.00,SSE,163,1.0,2.0,100,0.00,,,0.00,1.000000,,2013-01-17 05:52:00,
2013-01-17 01:22:00,30.0,30.0,-100.00,NNW,340,0.0,2.0,100,0.00,,,0.00,1.000000,,2013-01-17 06:22:00,
2013-01-17 01:33:00,30.0,30.0,-100.00,NNW,340,0.0,2.0,100,0.00,,,0.00,1.000000,,2013-01-17 06:33:00,
2013-01-17 01:42:00,30.0,30.0,-100.00,NNW,340,0.0,2.0,100,0.00,,,0.00,1.000000,,2013-01-17 06:42:00,
2013-01-17 01:52:00,30.0,30.0,-100.00,NNW,340,0.0,2.0,100,0.00,,,0.00,1.000000,,2013-01-17 06:52:00,
2013-01-17 02:22:00,30.0,30.0,-100.00,SW,230,0.0,2.0,100,0.00,,,0.00,1.000000,,2013-01-17 07:22:00,
2013-01-17 02:33:00,30.0,30.0,-100.00,SW,230,0.0,2.0,100,0.00,,,0.00,1.000000,,2013-01-17 07:33:00,
2013-01-17 02:42:00,30.0,30.0,-100.00,SW,230,0.0,2.0,100,0.00,,,0.00,1.000000,,2013-01-17 07:42:00,
2013-01-17 02:52:00,30.0,30.0,-100.00,SW,230,0.0,2.0,100,0.00,,,0.00,1.000000,,2013-01-17 07:52:00,
2013-01-17 03:22:00,30.0,30.0,-100.00,SSW,211,0.0,3.0,100,0.00,,,0.00,1.000000,,2013-01-17 08:22:00,
2013-01-17 03:32:00,30.0,30.0,-100.00,SSW,211,0.0,3.0,100,0.00,,,0.00,1.000000,,2013-01-17 08:32:00,
2013-01-17 03:43:00,30.0,30.0,-100.00,SSW,211,0.0,3.0,100,0.00,,,0.00,1.000000,,2013-01-17 08:43:00,
2013-01-17 03:52:00,30.0,30.0,-100.00,SSW,211,0.0,3.0,100,0.00,,,0.00,1.000000,,2013-01-17 08:52:00,
2013-01-17 04:22:00,30.0,30.0,-100.00,WNW,283,1.0,5.0,100,0.00,,,0.00,1.000000,,2013-01-17 09:22:00,
2013-01-17 04:33:00,30.0,30.0,-100.00,WNW,283,1.0,5.0,100,0.00,,,0.00,1.000000,,2013-01-17 09:33:00,
2013-01-17 04:42:00,30.0,30.0,-100.00,WNW,283,1.0,5.0,100,0.00,,,0.00,1.000000,,2013-01-17 09:42:00,
2013-01-17 04:52:00,30.0,30.0,-100.00,WNW,283,1.0,5.0,100,0.00,,,0.00,1.000000,,2013-01-17 09:52:00,
2013-01-17 05:22:00,31.0,30.0,-100.00,West,272,3.0,7.0,97,0.00,,,0.00,1.000000,,2013-01-17 10:22:00,
2013-01-17 05:33:00,31.0,30.0,-100.00,West,272,3.0,7.0,97,0.00,,,0.00,1.000000,,2013-01-17 10:33:00,
2013-01-17 05:42:00,31.0,30.0,-100.00,West,272,3.0,7.0,97,0.00,,,0.00,1.000000,,2013-01-17 10:42:00,
2013-01-17 05:52:00,31.0,30.0,-100.00,West,272,3.0,7.0,97,0.00,,,0.00,1.000000,,2013-01-17 10:52:00,
2013-01-17 06:23:00,31.0,29.0,-100.00,West,277,3.0,6.0,94,0.00,,,0.00,1.000000,,2013-01-17 11:23:00,
2013-01-17 06:33:00,31.0,29.0,-100.00,West,277,3.0,6.0,94,0.00,,,0.00,1.000000,,2013-01-17 11:33:00,
2013-01-17 06:43:00,31.0,29.0,-100.00,West,277,3.0,6.0,94,0.00,,,0.00,1.000000,,2013-01-17 11:43:00,
2013-01-17 06:52:00,31.0,29.0,-100.00,West,277,3.0,6.0,94,0.00,,,0.00,1.000000,,2013-01-17 11:52:00,
2013-01-17 07:23:00,31.0,29.0,-100.00,West,270,3.0,9.0,93,0.00,,,0.00,1.000000,,2013-01-17 12:23:00,
2013-01-17 07:33:00,31.0,29.0,-100.00,West,270,3.0,9.0,93,0.00,,,0.00,1.000000,,2013-01-17 12:33:00,
2013-01-17 07:43:00,31.0,29.0,-100.00,West,270,3.0,9.0,93,0.00,,,0.00,1.000000,,2013-01-17 12:43:00,
2013-01-17 07:52:00,31.0,29.0,-100.00,West,270,3.0,9.0,93,0.00,,,0.00,1.000000,,2013-01-17 12:52:00,
2013-01-17 08:23:00,32.0,29.0,-100.00,WSW,254,4.0,13.0,88,0.00,,,0.00,2.000000,,2013-01-17 13:23:00,
2013-01-17 08:33:00,32.0,29.0,-100.00,WSW,254,4.0,13.0,88,0.00,,,0.00,2.000000,,2013-01-17 13:33:00,
2013-01-17 08:43:00,32.0,29.0,-100.00,WSW,254,4.0,13.0,88,0.00,,,0.00,2.000000,,2013-01-17 13:43:00,
2013-01-17 08:53:00,32.0,29.0,-100.00,WSW,254,4.0,13.0,88,0.00,,,0.00,2.000000,,2013-01-17 13:53:00,
2013-01-17 09:23:00,32.0,29.0,-100.00,West,279,3.0,9.0,88,0.00,,,0.00,19.000000,,2013-01-17 14:23:00,
2013-01-17 09:33:00,32.0,29.0,-100.00,West,279,3.0,9.0,88,0.00,,,0.00,19.000000,,2013-01-17 14:33:00,
2013-01-17 09:43:00,32.0,29.0,-100.00,West,279,3.0,9.0,88,0.00,,,0.00,19.000000,,2013-01-17 14:43:00,
2013-01-17 09:53:00,32.0,29.0,-100.00,West,279,3.0,9.0,88,0.00,,,0.00,19.000000,,2013-01-17 14:53:00,
2013-01-17 10:23:00,33.0,29.0,-100.00,West,268,4.0,7.0,86,0.00,,,0.00,38.000000,,2013-01-17 15:23:00,
2013-01-17 10:33:00,33.0,29.0,-100.00,West,268,4.0,7.0,86,0.00,,,0.00,38.000000,,2013-01-17 15:33:00,
2013-01-17 10:43:00,33.0,29.0,-100.00,West,268,4.0,7.0,86,0.00,,,0.00,38.000000,,2013-01-17 15:43:00,
2013-01-17 10:53:00,33.0,29.0,-100.00,West,268,4.0,7.0,86,0.00,,,0.00,38.000000,,2013-01-17 15:53:00,
2013-01-17 11:23:00,36.0,29.0,-100.00,West,261,4.0,11.0,77,0.01,,,0.01,187.000000,,2013-01-17 16:23:00,
2013-01-17 11:33:00,36.0,29.0,-100.00,West,261,4.0,11.0,77,0.01,,,0.01,187.000000,,2013-01-17 16:33:00,
2013-01-17 11:43:00,36.0,29.0,-100.00,West,261,4.0,11.0,77,0.01,,,0.01,187.000000,,2013-01-17 16:43:00,
2013-01-17 11:53:00,36.0,29.0,-100.00,West,261,4.0,11.0,77,0.01,,,0.01,187.000000,,2013-01-17 16:53:00,
2013-01-17 12:23:00,36.0,30.0,-100.00,WNW,291,3.0,12.0,79,0.00,,,0.01,226.000000,,2013-01-17 17:23:00,
2013-01-17 12:33:00,36.0,30.0,-100.00,WNW,291,3.0,12.0,79,0.00,,,0.01,226.000000,,2013-01-17 17:33:00,
2013-01-17 12:43:00,36.0,30.0,-100.00,WNW,291,3.0,12.0,79,0.00,,,0.01,226.000000,,2013-01-17 17:43:00,
2013-01-17 12:53:00,36.0,30.0,-100.00,WNW,291,3.0,12.0,79,0.00,,,0.01,226.000000,,2013-01-17 17:53:00,
2013-01-17 13:23:00,37.0,30.0,-100.00,West,272,4.0,13.0,76,0.00,,,0.01,209.000000,,2013-01-17 18:23:00,
2013-01-17 13:34:00,37.0,30.0,-100.00,West,272,4.0,13.0,76,0.00,,,0.01,209.000000,,2013-01-17 18:34:00,
2013-01-17 13:44:00,37.0,30.0,-100.00,West,272,4.0,13.0,76,0.00,,,0.01,209.000000,,2013-01-17 18:44:00,
2013-01-17 13:53:00,37.0,30.0,-100.00,West,272,4.0,13.0,76,0.00,,,0.01,209.000000,,2013-01-17 18:53:00,
2013-01-17 15:23:00,36.0,28.0,-100.00,WSW,247,4.0,8.0,73,-99.99,,,0.17,169.000000,,2013-01-17 20:23:00,
2013-01-17 15:33:00,36.0,28.0,-100.00,WSW,247,4.0,8.0,73,-99.99,,,0.17,169.000000,,2013-01-17 20:33:00,
2013-01-17 15:43:00,36.0,28.0,-100.00,WSW,247,4.0,8.0,73,-99.99,,,0.17,169.000000,,2013-01-17 20:43:00,
2013-01-17 15:53:00,36.0,28.0,-100.00,WSW,247,4.0,8.0,73,-99.99,,,0.17,169.000000,,2013-01-17 20:53:00,
2013-01-17 16:23:00,35.0,29.0,-100.00,WSW,253,2.0,8.0,78,0.02,,,0.19,60.000000,,2013-01-17 21:23:00,
2013-01-17 16:34:00,35.0,29.0,-100.00,WSW,253,2.0,8.0,78,0.02,,,0.19,60.000000,,2013-01-17 21:34:00,
2013-01-17 16:43:00,35.0,29.0,-100.00,WSW,253,2.0,8.0,78,0.02,,,0.19,60.000000,,2013-01-17 21:43:00,
2013-01-17 16:53:00,35.0,29.0,-100.00,WSW,253,2.0,8.0,78,0.02,,,0.19,60.000000,,2013-01-17 21:53:00,
2013-01-17 17:23:00,33.0,30.0,-100.00,WSW,237,1.0,5.0,88,0.03,,,0.22,17.000000,,2013-01-17 22:23:00,
2013-01-17 17:33:00,33.0,30.0,-100.00,WSW,237,1.0,5.0,88,0.03,,,0.22,17.000000,,2013-01-17 22:33:00,
2013-01-17 17:43:00,33.0,30.0,-100.00,WSW,237,1.0,5.0,88,0.03,,,0.22,17.000000,,2013-01-17 22:43:00,
2013-01-17 17:52:00,33.0,30.0,-100.00,WSW,237,1.0,5.0,88,0.03,,,0.22,17.000000,,2013-01-17 22:52:00,
2013-01-17 18:23:00,32.0,32.0,-100.00,West,271,0.0,2.0,98,0.01,,,0.23,1.000000,,2013-01-17 23:23:00,
2013-01-17 18:33:00,32.0,32.0,-100.00,West,271,0.0,2.0,98,0.01,,,0.23,1.000000,,2013-01-17 23:33:00,
2013-01-17 18:43:00,32.0,32.0,-100.00,West,271,0.0,2.0,98,0.01,,,0.23,1.000000,,2013-01-17 23:43:00,
2013-01-17 18:53:00,32.0,32.0,-100.00,West,271,0.0,2.0,98,0.01,,,0.23,1.000000,,2013-01-17 23:53:00,
2013-01-17 19:23:00,31.0,31.0,-100.00,WSW,250,0.0,2.0,99,0.00,,,0.23,1.000000,,2013-01-18 00:23:00,
2013-01-17 19:33:00,31.0,31.0,-100.00,WSW,250,0.0,2.0,99,0.00,,,0.23,1.000000,,2013-01-18 00:33:00,
2013-01-17 19:43:00,31.0,31.0,-100.00,WSW,250,0.0,2.0,99,0.00,,,0.23,1.000000,,2013-01-18 00:43:00,
2013-01-17 19:52:00,31.0,31.0,-100.00,WSW,250,0.0,2.0,99,0.00,,,0.23,1.000000,,2013-01-18 00:52:00,
2013-01-17 20:23:00,30.0,30.0,-100.00,NW,310,0.0,2.0,99,0.00,,,0.23,1.000000,,2013-01-18 01:23:00,
2013-01-17 20:33:00,30.0,30.0,-100.00,NW,310,0.0,2.0,99,0.00,,,0.23,1.000000,,2013-01-18 01:33:00,
2013-01-17 20:43:00,30.0,30.0,-100.00,NW,310,0.0,2.0,99,0.00,,,0.23,1.000000,,2013-01-18 01:43:00,
2013-01-17 20:52:00,30.0,30.0,-100.00,NW,310,0.0,2.0,99,0.00,,,0.23,1.000000,,2013-01-18 01:52:00,
2013-01-17 21:23:00,30.0,29.0,-100.00,WSW,257,2.0,3.0,98,0.00,,,0.23,1.000000,,2013-01-18 02:23:00,
2013-01-17 21:33:00,30.0,29.0,-100.00,WSW,257,2.0,3.0,98,0.00,,,0.23,1.000000,,2013-01-18 02:33:00,
2013-01-17 21:43:00,30.0,29.0,-100.00,WSW,257,2.0,3.0,98,0.00,,,0.23,1.000000,,2013-01-18 02:43:00,
2013-01-17 21:52:00,30.0,29.0,-100.00,WSW,257,2.0,3.0,98,0.00,,,0.23,1.000000,,2013-01-18 02:52:00,
2013-01-17 22:23:00,31.0,29.0,-100.00,WSW,240,3.0,5.0,93,0.00,,,0.23,1.000000,,2013-01-18 03:23:00,
2013-01-17 22:33:00,31.0,29.0,-100.00,WSW,240,3.0,5.0,93,0.00,,,0.23,1.000000,,2013-01-18 03:33:00,
2013-01-17 22:43:00,31.0,29.0,-100.00,WSW,240,3.0,5.0,93,0.00,,,0.23,1.000000,,2013-01-18 03:43:00,
2013-01-17 22:52:00,31.0,29.0,-100.00,WSW,240,3.0,5.0,93,0.00,,,0.23,1.000000,,2013-01-18 03:52:00,
2013-01-17 23:22:00,30.0,29.0,-100.00,WSW,255,1.0,4.0,96,0.00,,,0.23,1.000000,,2013-01-18 04:22:00,
2013-01-17 23:33:00,30.0,29.0,-100.00,WSW,255,1.0,4.0,96,0.00,,,0.23,1.000000,,2013-01-18 04:33:00,
2013-01-17 23:42:00,30.0,29.0,-100.00,WSW,255,1.0,4.0,96,0.00,,,0.23,1.000000,,2013-01-18 04:42:00,
2013-01-17 23:52:00,30.0,29.0,-100.00,WSW,255,1.0,4.0,96,0.00,,,0.23,1.000000,,2013-01-18 04:52:00,